Time,TemperatureF,DewpointF,PressureIn,WindDirection,WindDirectionDegrees,WindSpeedMPH,WindSpeedGustMPH,Humidity,HourlyPrecipIn,Conditions,Clouds,dailyrainin,SoftwareType,DateUTC
2013-02-21 00:00:00,22.0,11.7,30.05,ESE,116,9.0,13.0,64,0.00,,,0.00,Wunderground v.1.15,2013-02-21 05:00:00,
2013-02-21 00:05:00,22.0,11.7,30.05,East,82,9.0,19.0,64,0.00,,,0.00,Wunderground v.1.15,2013-02-21 05:05:00,
2013-02-21 00:15:00,21.9,11.6,30.06,ESE,104,7.0,9.0,64,0.00,,,0.00,Wunderground v.1.15,2013-02-21 05:15:00,
2013-02-21 00:20:00,21.8,11.8,30.06,ESE,119,6.0,7.0,65,0.00,,,0.00,Wunderground v.1.15,2013-02-21 05:20:00,
2013-02-21 00:25:00,21.8,11.8,30.06,East,96,6.0,11.0,65,0.00,,,0.00,Wunderground v.1.15,2013-02-21 05:25:00,
2013-02-21 00:30:00,21.9,11.9,30.06,East,83,7.0,7.0,65,0.00,,,0.00,Wunderground v.1.15,2013-02-21 05:30:00,
2013-02-21 00:40:00,22.2,11.9,30.06,East,89,7.0,7.0,64,0.00,,,0.00,Wunderground v.1.15,2013-02-21 05:40:00,
2013-02-21 00:45:00,22.3,12.3,30.06,East,101,7.0,8.0,65,0.00,,,0.00,Wunderground v.1.15,2013-02-21 05:45:00,
2013-02-21 00:50:00,22.4,12.1,30.05,ESE,105,7.0,7.0,64,0.00,,,0.00,Wunderground v.1.15,2013-02-21 05:50:00,
2013-02-21 01:00:00,22.5,12.5,30.05,East,101,8.0,12.0,65,0.00,,,0.00,Wunderground v.1.15,2013-02-21 06:00:00,
2013-02-21 01:10:00,22.7,12.3,30.05,East,83,11.0,11.0,64,0.00,,,0.00,Wunderground v.1.15,2013-02-21 06:10:00,
2013-02-21 01:20:00,22.7,12.7,30.05,East,90,7.0,11.0,65,0.00,,,0.00,Wunderground v.1.15,2013-02-21 06:20:00,
2013-02-21 01:25:00,22.8,12.4,30.04,ESE,103,8.0,16.0,64,0.00,,,0.00,Wunderground v.1.15,2013-02-21 06:25:00,
2013-02-21 01:35:00,22.8,12.4,30.04,ESE,115,10.0,16.0,64,0.00,,,0.00,Wunderground v.1.15,2013-02-21 06:35:00,
2013-02-21 01:40:00,22.8,12.4,30.04,ESE,110,10.0,10.0,64,0.00,,,0.00,Wunderground v.1.15,2013-02-21 06:40:00,
2013-02-21 01:50:00,22.8,12.4,30.04,East,98,10.0,10.0,64,0.00,,,0.00,Wunderground v.1.15,2013-02-21 06:50:00,
2013-02-21 01:55:00,22.8,12.8,30.04,East,96,11.0,12.0,65,0.00,,,0.00,Wunderground v.1.15,2013-02-21 06:55:00,
2013-02-21 02:00:00,22.8,12.4,30.04,SE,127,11.0,12.0,64,0.00,,,0.00,Wunderground v.1.15,2013-02-21 07:00:00,
2013-02-21 02:10:00,22.9,12.9,30.04,ESE,103,7.0,9.0,65,0.00,,,0.00,Wunderground v.1.15,2013-02-21 07:10:00,
2013-02-21 02:15:00,22.9,12.9,30.04,ESE,115,6.0,9.0,65,0.00,,,0.00,Wunderground v.1.15,2013-02-21 07:15:00,
2013-02-21 02:20:00,22.9,12.9,30.04,ESE,118,8.0,8.0,65,0.00,,,0.00,Wunderground v.1.15,2013-02-21 07:20:00,
2013-02-21 02:30:00,23.0,13.0,30.04,ESE,107,9.0,9.0,65,0.00,,,0.00,Wunderground v.1.15,2013-02-21 07:30:00,
2013-02-21 02:35:00,23.0,13.0,30.04,ESE,110,9.0,17.0,65,0.00,,,0.00,Wunderground v.1.15,2013-02-21 07:35:00,
2013-02-21 02:45:00,23.0,13.0,30.04,ESE,122,9.0,13.0,65,0.00,,,0.00,Wunderground v.1.15,2013-02-21 07:45:00,
2013-02-21 02:55:00,23.0,13.0,30.04,ESE,114,8.0,9.0,65,0.00,,,0.00,Wunderground v.1.15,2013-02-21 07:55:00,
2013-02-21 03:00:00,22.9,13.2,30.03,ESE,110,8.0,8.0,66,0.00,,,0.00,Wunderground v.1.15,2013-02-21 08:00:00,
2013-02-21 03:10:00,23.0,13.0,30.03,ESE,103,9.0,9.0,65,0.00,,,0.00,Wunderground v.1.15,2013-02-21 08:10:00,
2013-02-21 03:15:00,23.0,13.0,30.03,East,95,9.0,10.0,65,0.00,,,0.00,Wunderground v.1.15,2013-02-21 08:15:00,
2013-02-21 03:20:00,23.0,13.0,30.04,ESE,103,9.0,9.0,65,0.00,,,0.00,Wunderground v.1.15,2013-02-21 08:20:00,
2013-02-21 03:25:00,23.0,13.0,30.04,ESE,113,10.0,13.0,65,0.00,,,0.00,Wunderground v.1.15,2013-02-21 08:25:00,
2013-02-21 03:35:00,23.0,12.6,30.04,ESE,109,9.0,17.0,64,0.00,,,0.00,Wunderground v.1.15,2013-02-21 08:35:00,
2013-02-21 03:45:00,23.0,12.6,30.04,ESE,105,10.0,10.0,64,0.00,,,0.00,Wunderground v.1.15,2013-02-21 08:45:00,
2013-02-21 03:50:00,23.0,12.6,30.05,SE,129,10.0,10.0,64,0.00,,,0.00,Wunderground v.1.15,2013-02-21 08:50:00,
2013-02-21 04:00:00,23.0,12.6,30.04,ESE,119,9.0,12.0,64,0.00,,,0.00,Wunderground v.1.15,2013-02-21 09:00:00,
2013-02-21 04:10:00,23.0,12.6,30.05,ESE,123,10.0,10.0,64,0.00,,,0.00,Wunderground v.1.15,2013-02-21 09:10:00,
2013-02-21 04:15:00,23.0,12.6,30.05,ESE,123,10.0,10.0,64,0.00,,,0.00,Wunderground v.1.15,2013-02-21 09:15:00,
2013-02-21 04:20:00,23.0,12.6,30.04,SE,129,9.0,9.0,64,0.00,,,0.00,Wunderground v.1.15,2013-02-21 09:20:00,
2013-02-21 04:35:00,22.9,12.9,30.05,SE,124,10.0,10.0,65,0.00,,,0.00,Wunderground v.1.15,2013-02-21 09:35:00,
2013-02-21 04:45:00,22.8,12.4,30.05,ESE,105,8.0,10.0,64,0.00,,,0.00,Wunderground v.1.15,2013-02-21 09:45:00,
2013-02-21 04:50:00,22.8,12.4,30.05,SE,128,9.0,9.0,64,0.00,,,0.00,Wunderground v.1.15,2013-02-21 09:50:00,
2013-02-21 05:00:00,22.8,12.4,30.06,ESE,122,10.0,13.0,64,0.00,,,0.00,Wunderground v.1.15,2013-02-21 10:00:00,
2013-02-21 05:15:00,22.9,12.5,30.06,ESE,118,11.0,11.0,64,0.00,,,0.00,Wunderground v.1.15,2013-02-21 10:15:00,
2013-02-21 05:25:00,22.9,12.2,30.06,SE,135,8.0,10.0,63,0.00,,,0.00,Wunderground v.1.15,2013-02-21 10:25:00,
2013-02-21 05:30:00,22.9,12.2,30.06,SE,139,9.0,14.0,63,0.00,,,0.00,Wunderground v.1.15,2013-02-21 10:30:00,
2013-02-21 05:40:00,23.0,12.3,30.07,ESE,120,9.0,11.0,63,0.00,,,0.00,Wunderground v.1.15,2013-02-21 10:40:00,
2013-02-21 05:50:00,22.9,12.2,30.07,SSE,150,9.0,9.0,63,0.00,,,0.00,Wunderground v.1.15,2013-02-21 10:50:00,
2013-02-21 05:55:00,23.0,12.3,30.07,SE,129,9.0,9.0,63,0.00,,,0.00,Wunderground v.1.15,2013-02-21 10:55:00,
2013-02-21 06:00:00,23.0,12.3,30.07,SE,132,9.0,16.0,63,0.00,,,0.00,Wunderground v.1.15,2013-02-21 11:00:00,
2013-02-21 06:10:00,23.1,12.4,30.07,ESE,120,10.0,12.0,63,0.00,,,0.00,Wunderground v.1.15,2013-02-21 11:10:00,
2013-02-21 06:15:00,23.1,12.4,30.07,ESE,123,8.0,13.0,63,0.00,,,0.00,Wunderground v.1.15,2013-02-21 11:15:00,
2013-02-21 06:20:00,23.1,12.4,30.07,SE,124,9.0,14.0,63,0.00,,,0.00,Wunderground v.1.15,2013-02-21 11:20:00,
2013-02-21 06:25:00,23.1,12.0,30.07,SE,130,10.0,14.0,62,0.00,,,0.00,Wunderground v.1.15,2013-02-21 11:25:00,
2013-02-21 06:30:00,23.1,12.4,30.07,ESE,104,9.0,9.0,63,0.00,,,0.00,Wunderground v.1.15,2013-02-21 11:30:00,
2013-02-21 06:40:00,23.1,12.4,30.08,East,96,9.0,10.0,63,0.00,,,0.00,Wunderground v.1.15,2013-02-21 11:40:00,
2013-02-21 06:45:00,23.1,12.4,30.08,ESE,115,7.0,10.0,63,0.00,,,0.00,Wunderground v.1.15,2013-02-21 11:45:00,
2013-02-21 06:55:00,23.1,12.4,30.07,East,93,7.0,7.0,63,0.00,,,0.00,Wunderground v.1.15,2013-02-21 11:55:00,
2013-02-21 07:00:00,23.1,12.4,30.08,East,90,7.0,7.0,63,0.00,,,0.00,Wunderground v.1.15,2013-02-21 12:00:00,
2013-02-21 07:10:00,23.1,12.7,30.08,ESE,103,6.0,6.0,64,0.00,,,0.00,Wunderground v.1.15,2013-02-21 12:10:00,
2013-02-21 07:20:00,23.2,12.8,30.08,East,101,6.0,6.0,64,0.00,,,0.00,Wunderground v.1.15,2013-02-21 12:20:00,
2013-02-21 07:25:00,23.2,12.8,30.08,ESE,114,6.0,7.0,64,0.00,,,0.00,Wunderground v.1.15,2013-02-21 12:25:00,
2013-02-21 07:35:00,23.4,13.0,30.08,SE,146,8.0,16.0,64,0.00,,,0.00,Wunderground v.1.15,2013-02-21 12:35:00,
2013-02-21 07:45:00,23.5,13.1,30.08,ESE,107,8.0,10.0,64,0.00,,,0.00,Wunderground v.1.15,2013-02-21 12:45:00,
2013-02-21 07:55:00,23.7,13.3,30.09,East,101,8.0,17.0,64,0.00,,,0.00,Wunderground v.1.15,2013-02-21 12:55:00,
2013-02-21 08:00:00,23.8,13.4,30.09,ESE,109,9.0,9.0,64,0.00,,,0.00,Wunderground v.1.15,2013-02-21 13:00:00,
2013-02-21 08:10:00,23.9,13.1,30.09,ESE,110,10.0,10.0,63,0.00,,,0.00,Wunderground v.1.15,2013-02-21 13:10:00,
2013-02-21 08:15:00,24.0,13.2,30.09,ESE,107,10.0,12.0,63,0.00,,,0.00,Wunderground v.1.15,2013-02-21 13:15:00,
2013-02-21 08:20:00,24.2,13.4,30.09,SE,132,9.0,9.0,63,0.00,,,0.00,Wunderground v.1.15,2013-02-21 13:20:00,
2013-02-21 08:30:00,24.3,13.5,30.09,ESE,114,10.0,10.0,63,0.00,,,0.00,Wunderground v.1.15,2013-02-21 13:30:00,
2013-02-21 08:35:00,24.4,13.2,30.09,SE,127,9.0,12.0,62,0.00,,,0.00,Wunderground v.1.15,2013-02-21 13:35:00,
2013-02-21 08:40:00,24.5,13.7,30.10,ESE,119,9.0,13.0,63,0.00,,,0.00,Wunderground v.1.15,2013-02-21 13:40:00,
2013-02-21 08:50:00,24.7,13.9,30.09,ESE,110,9.0,9.0,63,0.00,,,0.00,Wunderground v.1.15,2013-02-21 13:50:00,
2013-02-21 08:55:00,24.8,13.6,30.10,SSE,148,9.0,15.0,62,0.00,,,0.00,Wunderground v.1.15,2013-02-21 13:55:00,
2013-02-21 09:00:00,24.8,13.6,30.10,ESE,107,9.0,9.0,62,0.00,,,0.00,Wunderground v.1.15,2013-02-21 14:00:00,
2013-02-21 09:10:00,25.0,13.8,30.10,SSE,158,11.0,11.0,62,0.00,,,0.00,Wunderground v.1.15,2013-02-21 14:10:00,
2013-02-21 09:20:00,25.0,13.4,30.10,ESE,113,12.0,15.0,61,0.00,,,0.00,Wunderground v.1.15,2013-02-21 14:20:00,
2013-02-21 09:25:00,25.0,13.4,30.11,ESE,115,11.0,15.0,61,0.00,,,0.00,Wunderground v.1.15,2013-02-21 14:25:00,
2013-02-21 09:35:00,25.1,13.5,30.11,ESE,117,13.0,13.0,61,0.00,,,0.00,Wunderground v.1.15,2013-02-21 14:35:00,
2013-02-21 09:45:00,25.4,13.8,30.11,ESE,114,12.0,19.0,61,0.00,,,0.00,Wunderground v.1.15,2013-02-21 14:45:00,
2013-02-21 09:50:00,25.5,14.3,30.11,ESE,121,11.0,16.0,62,0.00,,,0.00,Wunderground v.1.15,2013-02-21 14:50:00,
2013-02-21 10:00:00,25.6,14.0,30.12,SE,129,13.0,13.0,61,0.00,,,0.00,Wunderground v.1.15,2013-02-21 15:00:00,
2013-02-21 10:10:00,25.8,14.2,30.11,SE,127,9.0,9.0,61,0.00,,,0.00,Wunderground v.1.15,2013-02-21 15:10:00,
2013-02-21 10:15:00,25.9,13.9,30.12,SSE,166,10.0,11.0,60,0.00,,,0.00,Wunderground v.1.15,2013-02-21 15:15:00,
2013-02-21 10:20:00,25.9,13.9,30.12,SE,129,11.0,12.0,60,0.00,,,0.00,Wunderground v.1.15,2013-02-21 15:20:00,
2013-02-21 10:30:00,25.7,13.7,30.13,SSE,149,13.0,13.0,60,0.00,,,0.00,Wunderground v.1.15,2013-02-21 15:30:00,
2013-02-21 10:40:00,26.1,14.1,30.13,ESE,105,12.0,20.0,60,0.00,,,0.00,Wunderground v.1.15,2013-02-21 15:40:00,
2013-02-21 10:50:00,26.2,14.2,30.13,SE,133,12.0,12.0,60,0.00,,,0.00,Wunderground v.1.15,2013-02-21 15:50:00,
2013-02-21 11:00:00,26.6,14.2,30.13,ESE,113,10.0,21.0,59,0.00,,,0.00,Wunderground v.1.15,2013-02-21 16:00:00,
2013-02-21 11:10:00,26.6,13.8,30.13,SE,131,12.0,12.0,58,0.00,,,0.00,Wunderground v.1.15,2013-02-21 16:10:00,
2013-02-21 11:15:00,26.6,14.2,30.13,ESE,119,12.0,12.0,59,0.00,,,0.00,Wunderground v.1.15,2013-02-21 16:15:00,
2013-02-21 11:20:00,26.9,14.5,30.13,SE,128,9.0,9.0,59,0.00,,,0.00,Wunderground v.1.15,2013-02-21 16:20:00,
2013-02-21 11:30:00,27.0,14.6,30.12,ESE,106,9.0,9.0,59,0.00,,,0.00,Wunderground v.1.15,2013-02-21 16:30:00,
2013-02-21 11:40:00,27.2,14.8,30.12,ESE,121,10.0,10.0,59,0.00,,,0.00,Wunderground v.1.15,2013-02-21 16:40:00,
2013-02-21 11:50:00,27.4,14.5,30.11,SE,136,11.0,19.0,58,0.00,,,0.00,Wunderground v.1.15,2013-02-21 16:50:00,
2013-02-21 11:55:00,27.6,15.1,30.11,SE,130,10.0,19.0,59,0.00,,,0.00,Wunderground v.1.15,2013-02-21 16:55:00,
2013-02-21 12:00:00,28.0,15.1,30.10,SE,124,10.0,10.0,58,0.00,,,0.00,Wunderground v.1.15,2013-02-21 17:00:00,
2013-02-21 12:10:00,28.1,15.2,30.09,ESE,118,11.0,15.0,58,0.00,,,0.00,Wunderground v.1.15,2013-02-21 17:10:00,
2013-02-21 12:20:00,28.3,15.0,30.10,SSE,151,10.0,10.0,57,0.00,,,0.00,Wunderground v.1.15,2013-02-21 17:20:00,
2013-02-21 12:25:00,28.9,16.0,30.10,SE,133,9.0,20.0,58,0.00,,,0.00,Wunderground v.1.15,2013-02-21 17:25:00,
2013-02-21 12:35:00,29.4,15.6,30.09,ESE,117,12.0,12.0,56,0.00,,,0.00,Wunderground v.1.15,2013-02-21 17:35:00,
2013-02-21 12:40:00,30.3,16.5,30.09,ESE,120,10.0,21.0,56,0.00,,,0.00,Wunderground v.1.15,2013-02-21 17:40:00,
2013-02-21 12:50:00,30.1,15.9,30.10,ESE,120,15.0,18.0,55,0.00,,,0.00,Wunderground v.1.15,2013-02-21 17:50:00,
2013-02-21 13:00:00,30.2,16.0,30.09,ESE,117,14.0,14.0,55,0.00,,,0.00,Wunderground v.1.15,2013-02-21 18:00:00,
2013-02-21 13:10:00,30.4,16.1,30.09,SSE,148,13.0,13.0,55,0.00,,,0.00,Wunderground v.1.15,2013-02-21 18:10:00,
2013-02-21 13:15:00,30.6,15.9,30.09,SE,125,12.0,13.0,54,0.00,,,0.00,Wunderground v.1.15,2013-02-21 18:15:00,
2013-02-21 13:20:00,30.7,16.0,30.09,SSE,165,13.0,13.0,54,0.00,,,0.00,Wunderground v.1.15,2013-02-21 18:20:00,
2013-02-21 13:30:00,30.9,16.2,30.09,SE,124,12.0,15.0,54,0.00,,,0.00,Wunderground v.1.15,2013-02-21 18:30:00,
2013-02-21 13:40:00,30.7,16.8,30.10,ESE,117,12.0,12.0,56,0.00,,,0.00,Wunderground v.1.15,2013-02-21 18:40:00,
2013-02-21 13:45:00,31.0,16.7,30.10,SE,141,11.0,12.0,55,0.00,,,0.00,Wunderground v.1.15,2013-02-21 18:45:00,
2013-02-21 13:55:00,31.3,17.0,30.11,SE,132,7.0,13.0,55,0.00,,,0.00,Wunderground v.1.15,2013-02-21 18:55:00,
2013-02-21 14:00:00,31.3,17.0,30.11,SE,125,8.0,8.0,55,0.00,,,0.00,Wunderground v.1.15,2013-02-21 19:00:00,
2013-02-21 14:10:00,31.4,16.2,30.10,SE,127,8.0,8.0,53,0.00,,,0.00,Wunderground v.1.15,2013-02-21 19:10:00,
2013-02-21 14:20:00,31.6,17.3,30.10,SE,127,7.0,10.0,55,0.00,,,0.00,Wunderground v.1.15,2013-02-21 19:20:00,
2013-02-21 14:25:00,31.6,16.8,30.10,ESE,114,7.0,12.0,54,0.00,,,0.00,Wunderground v.1.15,2013-02-21 19:25:00,
2013-02-21 14:35:00,31.8,17.5,30.10,ESE,120,10.0,13.0,55,0.00,,,0.00,Wunderground v.1.15,2013-02-21 19:35:00,
2013-02-21 14:40:00,32.1,16.4,30.10,SE,134,10.0,10.0,52,0.00,,,0.00,Wunderground v.1.15,2013-02-21 19:40:00,
2013-02-21 14:50:00,32.1,17.3,30.10,ESE,118,10.0,13.0,54,0.00,,,0.00,Wunderground v.1.15,2013-02-21 19:50:00,
2013-02-21 14:55:00,32.2,16.5,30.09,SE,131,11.0,13.0,52,0.00,,,0.00,Wunderground v.1.15,2013-02-21 19:55:00,
2013-02-21 15:00:00,32.7,17.0,30.10,SSE,150,12.0,13.0,52,0.00,,,0.00,Wunderground v.1.15,2013-02-21 20:00:00,
2013-02-21 15:10:00,32.9,17.2,30.11,SE,135,10.0,19.0,52,0.00,,,0.00,Wunderground v.1.15,2013-02-21 20:10:00,
2013-02-21 15:15:00,32.5,16.4,30.11,SE,136,12.0,19.0,51,0.00,,,0.00,Wunderground v.1.15,2013-02-21 20:15:00,
2013-02-21 15:25:00,32.9,16.7,30.11,SE,141,12.0,14.0,51,0.00,,,0.00,Wunderground v.1.15,2013-02-21 20:25:00,
2013-02-21 15:30:00,32.9,17.2,30.11,SE,131,12.0,12.0,52,0.00,,,0.00,Wunderground v.1.15,2013-02-21 20:30:00,
2013-02-21 15:40:00,33.1,17.4,30.11,ESE,120,11.0,11.0,52,0.00,,,0.00,Wunderground v.1.15,2013-02-21 20:40:00,
2013-02-21 15:45:00,33.4,17.6,30.11,SE,139,11.0,17.0,52,0.00,,,0.00,Wunderground v.1.15,2013-02-21 20:45:00,
2013-02-21 15:55:00,32.9,16.7,30.12,ESE,116,15.0,22.0,51,0.00,,,0.00,Wunderground v.1.15,2013-02-21 20:55:00,
2013-02-21 16:00:00,32.9,16.7,30.12,SE,125,15.0,15.0,51,0.00,,,0.00,Wunderground v.1.15,2013-02-21 21:00:00,
2013-02-21 16:10:00,33.3,17.5,30.13,SSE,153,10.0,10.0,52,0.00,,,0.00,Wunderground v.1.15,2013-02-21 21:10:00,
2013-02-21 16:15:00,33.3,17.1,30.12,SSE,150,9.0,10.0,51,0.00,,,0.00,Wunderground v.1.15,2013-02-21 21:15:00,
2013-02-21 16:25:00,33.5,17.3,30.12,SE,132,9.0,13.0,51,0.00,,,0.00,Wunderground v.1.15,2013-02-21 21:25:00,
2013-02-21 16:30:00,33.6,17.4,30.13,SE,132,8.0,14.0,51,0.00,,,0.00,Wunderground v.1.15,2013-02-21 21:30:00,
2013-02-21 16:40:00,33.5,17.3,30.13,ESE,118,10.0,10.0,51,0.00,,,0.00,Wunderground v.1.15,2013-02-21 21:40:00,
2013-02-21 16:50:00,33.4,17.2,30.14,SE,136,11.0,11.0,51,0.00,,,0.00,Wunderground v.1.15,2013-02-21 21:50:00,
2013-02-21 16:55:00,33.4,17.2,30.13,ESE,119,9.0,11.0,51,0.00,,,0.00,Wunderground v.1.15,2013-02-21 21:55:00,
2013-02-21 17:00:00,33.5,17.7,30.13,SE,125,9.0,13.0,52,0.00,,,0.00,Wunderground v.1.15,2013-02-21 22:00:00,
2013-02-21 17:10:00,33.5,17.7,30.12,SE,129,8.0,10.0,52,0.00,,,0.00,Wunderground v.1.15,2013-02-21 22:10:00,
2013-02-21 17:20:00,33.4,18.1,30.13,SSE,149,7.0,7.0,53,0.00,,,0.00,Wunderground v.1.15,2013-02-21 22:20:00,
2013-02-21 17:25:00,33.3,17.5,30.12,SE,136,8.0,8.0,52,0.00,,,0.00,Wunderground v.1.15,2013-02-21 22:25:00,
2013-02-21 17:35:00,33.1,17.8,30.13,SE,141,10.0,18.0,53,0.00,,,0.00,Wunderground v.1.15,2013-02-21 22:35:00,
2013-02-21 17:45:00,32.8,17.5,30.14,SSE,152,8.0,10.0,53,0.00,,,0.00,Wunderground v.1.15,2013-02-21 22:45:00,
2013-02-21 17:50:00,32.7,17.4,30.14,SE,136,9.0,9.0,53,0.00,,,0.00,Wunderground v.1.15,2013-02-21 22:50:00,
2013-02-21 18:00:00,32.5,17.7,30.15,South,172,9.0,10.0,54,0.00,,,0.00,Wunderground v.1.15,2013-02-21 23:00:00,
2013-02-21 18:10:00,32.4,17.6,30.17,SE,125,6.0,6.0,54,0.00,,,0.00,Wunderground v.1.15,2013-02-21 23:10:00,
2013-02-21 18:20:00,32.3,17.5,30.18,East,86,5.0,5.0,54,0.00,,,0.00,Wunderground v.1.15,2013-02-21 23:20:00,
2013-02-21 18:25:00,32.1,17.7,30.19,ENE,72,4.0,5.0,55,0.00,,,0.00,Wunderground v.1.15,2013-02-21 23:25:00,
2013-02-21 18:35:00,31.9,18.0,30.21,East,79,4.0,17.0,56,0.00,,,0.00,Wunderground v.1.15,2013-02-21 23:35:00,
2013-02-21 18:45:00,31.7,18.2,30.22,ENE,67,5.0,6.0,57,0.00,,,0.00,Wunderground v.1.15,2013-02-21 23:45:00,
2013-02-21 18:50:00,31.4,18.3,30.22,ESE,104,4.0,4.0,58,0.00,,,0.00,Wunderground v.1.15,2013-02-21 23:50:00,
2013-02-21 19:00:00,30.9,18.2,30.23,ESE,120,3.0,3.0,59,0.00,,,0.00,Wunderground v.1.15,2013-02-22 00:00:00,
2013-02-21 19:10:00,31.0,18.3,30.23,SE,133,4.0,5.0,59,0.00,,,0.00,Wunderground v.1.15,2013-02-22 00:10:00,
2013-02-21 19:15:00,31.2,18.5,30.23,SE,142,5.0,7.0,59,0.00,,,0.00,Wunderground v.1.15,2013-02-22 00:15:00,
2013-02-21 19:25:00,31.0,18.7,30.23,SSE,150,6.0,8.0,60,0.00,,,0.00,Wunderground v.1.15,2013-02-22 00:25:00,
2013-02-21 19:30:00,30.9,18.2,30.23,SSE,149,5.0,5.0,59,0.00,,,0.00,Wunderground v.1.15,2013-02-22 00:30:00,
2013-02-21 19:40:00,31.3,18.2,30.25,SSE,158,4.0,4.0,58,0.00,,,0.00,Wunderground v.1.15,2013-02-22 00:40:00,
2013-02-21 19:50:00,31.1,18.0,30.26,SSW,208,1.0,1.0,58,0.00,,,0.00,Wunderground v.1.15,2013-02-22 00:50:00,
2013-02-21 19:55:00,31.1,18.0,30.25,SSE,159,2.0,4.0,58,0.00,,,0.00,Wunderground v.1.15,2013-02-22 00:55:00,
2013-02-21 20:00:00,30.9,17.8,30.25,SSE,159,3.0,7.0,58,0.00,,,0.00,Wunderground v.1.15,2013-02-22 01:00:00,
2013-02-21 20:10:00,31.1,18.0,30.24,SSE,149,7.0,8.0,58,0.00,,,0.00,Wunderground v.1.15,2013-02-22 01:10:00,
2013-02-21 20:15:00,31.3,18.2,30.24,SSE,159,8.0,8.0,58,0.00,,,0.00,Wunderground v.1.15,2013-02-22 01:15:00,
2013-02-21 20:25:00,31.4,17.9,30.24,SE,146,6.0,7.0,57,0.00,,,0.00,Wunderground v.1.15,2013-02-22 01:25:00,
2013-02-21 20:35:00,31.3,18.2,30.25,SSE,160,7.0,7.0,58,0.00,,,0.00,Wunderground v.1.15,2013-02-22 01:35:00,
2013-02-21 20:45:00,30.8,18.1,30.25,South,172,7.0,8.0,59,0.00,,,0.00,Wunderground v.1.15,2013-02-22 01:45:00,
2013-02-21 20:50:00,30.6,18.3,30.25,South,176,6.0,6.0,60,0.00,,,0.00,Wunderground v.1.15,2013-02-22 01:50:00,
2013-02-21 20:55:00,30.6,18.0,30.24,SSE,160,8.0,8.0,59,0.00,,,0.00,Wunderground v.1.15,2013-02-22 01:55:00,
2013-02-21 21:00:00,30.6,18.0,30.25,SSE,155,10.0,10.0,59,0.00,,,0.00,Wunderground v.1.15,2013-02-22 02:00:00,
2013-02-21 21:10:00,30.4,18.2,30.26,SSW,197,7.0,7.0,60,0.00,,,0.00,Wunderground v.1.15,2013-02-22 02:10:00,
2013-02-21 21:20:00,30.0,17.8,30.26,SSW,206,10.0,10.0,60,0.00,,,0.00,Wunderground v.1.15,2013-02-22 02:20:00,
2013-02-21 21:30:00,29.6,18.2,30.27,South,186,7.0,7.0,62,0.00,,,0.00,Wunderground v.1.15,2013-02-22 02:30:00,
2013-02-21 21:35:00,29.4,18.0,30.26,South,172,7.0,16.0,62,0.00,,,0.00,Wunderground v.1.15,2013-02-22 02:35:00,
2013-02-21 21:40:00,29.2,17.8,30.27,South,187,9.0,9.0,62,0.00,,,0.00,Wunderground v.1.15,2013-02-22 02:40:00,
2013-02-21 21:50:00,29.0,17.6,30.28,SSW,193,7.0,7.0,62,0.00,,,0.00,Wunderground v.1.15,2013-02-22 02:50:00,
2013-02-21 22:00:00,28.7,17.7,30.27,SSW,194,6.0,6.0,63,0.00,,,0.00,Wunderground v.1.15,2013-02-22 03:00:00,
2013-02-21 22:10:00,28.5,17.5,30.28,South,176,7.0,7.0,63,0.00,,,0.00,Wunderground v.1.15,2013-02-22 03:10:00,
2013-02-21 22:15:00,28.1,17.5,30.27,SSW,205,5.0,7.0,64,0.00,,,0.00,Wunderground v.1.15,2013-02-22 03:15:00,
2013-02-21 22:20:00,28.0,17.4,30.28,South,185,4.0,7.0,64,0.00,,,0.00,Wunderground v.1.15,2013-02-22 03:20:00,
2013-02-21 22:25:00,27.9,17.3,30.28,SSE,167,5.0,7.0,64,0.00,,,0.00,Wunderground v.1.15,2013-02-22 03:25:00,
2013-02-21 22:35:00,27.7,17.5,30.27,SSW,208,6.0,15.0,65,0.00,,,0.00,Wunderground v.1.15,2013-02-22 03:35:00,
2013-02-21 22:45:00,27.3,17.1,30.28,SSW,194,4.0,5.0,65,0.00,,,0.00,Wunderground v.1.15,2013-02-22 03:45:00,
2013-02-21 22:50:00,27.1,17.2,30.28,SSW,210,6.0,6.0,66,0.00,,,0.00,Wunderground v.1.15,2013-02-22 03:50:00,
2013-02-21 22:55:00,26.8,17.0,30.29,SSW,199,6.0,8.0,66,0.00,,,0.00,Wunderground v.1.15,2013-02-22 03:55:00,
2013-02-21 23:00:00,26.6,17.1,30.29,South,187,5.0,5.0,67,0.00,,,0.00,Wunderground v.1.15,2013-02-22 04:00:00,
2013-02-21 23:10:00,26.3,16.8,30.29,SSW,194,4.0,4.0,67,0.00,,,0.00,Wunderground v.1.15,2013-02-22 04:10:00,
2013-02-21 23:20:00,25.9,16.8,30.29,SW,229,3.0,3.0,68,0.00,,,0.00,Wunderground v.1.15,2013-02-22 04:20:00,
2013-02-21 23:30:00,25.8,16.7,30.29,SSE,149,5.0,5.0,68,0.00,,,0.00,Wunderground v.1.15,2013-02-22 04:30:00,
2013-02-21 23:35:00,25.8,16.7,30.30,South,190,4.0,12.0,68,0.00,,,0.00,Wunderground v.1.15,2013-02-22 04:35:00,
2013-02-21 23:45:00,25.6,16.5,30.28,SSE,167,4.0,5.0,68,0.00,,,0.00,Wunderground v.1.15,2013-02-22 04:45:00,
2013-02-21 23:50:00,25.5,16.7,30.29,SSE,167,4.0,4.0,69,0.00,,,0.00,Wunderground v.1.15,2013-02-22 04:50:00,